CAPE
320 504 667 1316 2228 2286 2490 2828 2877 2864 3012 3212 3337 3004 2865 2895 3150 3510 3885 4351 4428 4407 4370 4169 4156 4010 3827 3419 3169 3306 3307 3562 3486 3459 3208 3222 3071 2839 3243 3645 3782 3610 2888 2981 3230 2937 2778 2825 2270 2342 2656 3440 3641 3444 3500 3770 3858 3641 3500 3534 3444 3033 2905
193 0 166 886 1883 2378 2499 2910 3078 3114 3099 3232 3400 3324 3058 3187 3229 3450 3944 4493 4668 4754 4804 4345 4239 3884 3580 3432 3330 3297 3486 3662 3846 3912 3786 3733 3497 3381 3167 3670 3734 3714 3402 2612 2723 3142 2900 2986 2628 2612 2810 3175 3678 3606 3467 3697 3964 3972 3486 3691 3494 3554 3220
151 28 115 456 1085 2479 2683 2695 3200 3255 3264 3266 3222 3402 3216 3353 3404 3630 3982 4432 4815 5001 4875 4730 4347 3906 3601 3588 3369 3500 3602 3787 4005 4052 3820 3497 3601 3376 3364 3430 3597 3477 3520 3039 2714 2864 3044 3014 3292 3083 2872 3041 3326 3495 3263 3255 3592 3557 3150 3428 3377 3456 3462
374 58 58 482 1325 2537 2786 2781 3175 3304 3279 3288 3460 3553 3477 3677 3531 3708 4002 4415 4845 5007 4861 4676 4420 3807 3608 3582 3586 3715 3712 3870 3930 3771 3472 3410 3645 3787 3568 3500 3632 3459 3536 3446 2876 2588 2705 3019 3284 3426 3605 3430 3359 3264 3241 3131 3123 3393 3159 3312 3478 3237 3460
122 258 108 314 891 2288 2728 2828 3138 3405 3146 3236 3451 3773 3750 3606 3685 3789 4104 4188 4493 4726 4729 4595 4184 3794 3780 3762 3715 3659 3694 3834 3814 3636 3666 3632 3348 3736 3783 3429 3525 3575 3435 3386 3359 2991 2857 3098 3230 3716 3776 3730 3625 3367 3278 3261 3094 3316 3202 3192 3316 3336 3130
0 121 134 102 398 1268 2688 2769 2976 3162 3260 3227 3342 3622 3702 3669 3542 3665 3948 4157 4358 4508 4605 4521 4180 3921 3861 3734 3681 3624 3774 3817 3904 3858 3798 3491 3530 3608 3804 3888 3472 3657 3238 3318 3449 3313 3144 3128 3351 3564 3589 3892 3590 2930 2966 3291 2975 3094 3347 3256 3170 3014 2822
21 94 31 86 441 1071 2615 2874 2768 3043 3176 3208 3271 3590 3628 3638 3715 3660 3795 4009 4072 4386 4250 4286 4013 3996 4220 3916 3876 3880 3818 3753 3947 3733 3596 3461 3620 3785 4107 4143 3768 3566 3565 3300 3439 3353 3339 3321 3407 3460 3627 3539 3760 2970 2827 3396 3333 3056 3403 3550 3348 3130 2970
49 365 488 336 529 962 2308 2888 2815 2938 3111 3166 3148 3377 3411 3527 3530 3451 3622 3732 3602 3923 4039 4062 4074 4302 4280 4123 3914 3745 3848 3810 3929 3822 3717 3534 3609 3924 3932 3994 4093 3909 3845 3278 3487 3477 3430 3595 3514 3530 3533 3593 3842 3550 3043 3497 3607 3162 3323 3514 3631 3193 2995
10 326 502 663 893 957 1320 2650 2689 2718 3159 3196 3146 3374 3495 3492 3556 3504 3494 3567 3639 3508 3788 3710 3822 4050 4419 4161 4039 3889 4034 3805 4030 3932 3579 3515 3185 3615 3647 3859 4227 4153 3929 3578 3394 3637 3540 3550 3670 3830 3721 3720 3800 3990 3471 3600 3630 3536 3618 3720 3762 3472 3150
5 140 579 437 598 467 927 1642 2778 3015 3193 3389 3278 3362 3540 3473 3442 3338 3388 3338 3362 3170 3288 3120 3401 3774 4248 4324 4020 3928 4033 3911 3839 3305 3389 3321 3121 3432 3341 3130 3832 4258 3978 3868 3059 3256 3727 3546 3679 4050 4130 3732 3705 3894 3908 3661 3780 4006 3721 3795 3848 3786 3643
192 860 1227 1066 995 984 1295 1948 2887 3338 3269 4157 4041 3097 3504 3451 3382 3304 3252 3136 3097 3027 2964 3115 3011 3257 3993 4182 3903 3842 4015 3890 3516 3535 3417 3129 2956 2976 2896 2921 3303 3734 3862 3695 3106 2599 3460 3772 3784 4150 4247 3992 3774 3850 4072 4016 4067 4185 3874 3701 3806 3955 3865
739 751 1379 1057 670 701 1228 2606 3559 4029 3873 4226 3500 3080 3475 3821 3284 3151 3034 3129 3020 2935 2887 2965 2709 2970 3653 3967 3802 3882 3816 3892 3777 3655 3513 3242 2940 2811 2753 2792 2873 2992 3650 3630 3304 2861 2604 3609 3814 3843 4203 4344 4142 3932 4101 4287 4208 4403 4242 3627 3643 3897 3933
310 1441 1978 1422 1464 1140 1502 2144 2892 3499 3728 3313 3044 2955 3006 3077 3146 2923 3077 3103 2854 2873 2848 2947 2899 3032 3398 3862 3639 3853 3820 3871 3934 3753 3495 3564 3064 2832 2783 2648 2498 2539 3037 3666 3606 3164 2544 2876 3858 3872 4192 4485 4444 4224 4280 4309 4354 4567 4524 3947 3598 3760 3988
435 1290 1470 1670 1838 1883 1836 2118 2300 3114 3550 2934 2581 2721 2769 2829 2912 2990 2941 2925 2821 2723 2819 2896 3059 3123 3461 3853 3926 3990 3853 3806 3893 4127 3982 3788 4088 3486 2954 2698 2516 2659 2873 3514 3635 3392 3023 2405 3259 3929 4007 4425 4682 4530 4418 4468 4493 4576 4636 4368 3609 3455 3877
0 199 930 1083 1941 2512 2392 2197 2786 2793 3101 2928 2325 2414 2522 2490 2561 2980 2946 2704 2851 2614 2534 2780 2948 3115 3316 3740 4110 4291 4182 4281 4076 4295 4297 4236 4674 4314 3657 3157 3040 3052 3036 3303 3619 3472 3208 2707 2398 3649 4078 4209 4777 4855 4431 4336 4586 4601 4660 4622 4032 3534 3697
0 0 0 609 1552 2341 2910 2974 3053 3109 3183 3494 2677 2650 2491 2520 2684 2392 2622 2682 2564 2706 2484 2693 2984 3431 3376 3634 4102 4378 4419 4685 4691 4604 4645 4489 4811 4834 4373 3616 3431 3105 2987 3142 3319 3688 3554 3422 2888 2778 3800 4175 4630 4821 4658 4449 4444 4278 4061 4257 4555 3985 3613
0 0 50 158 769 1442 2748 3014 3669 3854 3739 3884 3446 2901 2742 2709 2540 2302 2162 2311 2431 2561 2418 2371 3260 3071 3293 3701 4079 4542 4673 4729 4752 4898 4895 4798 4661 4713 4738 4343 3829 3905 4133 3946 3705 3928 4420 3882 3290 2853 3160 4004 4392 4738 4860 4782 4537 4162 3935 4053 4161 4416 4162
0 0 0 0 0 58 982 2336 3220 4396 4228 3579 3553 3244 2822 2932 2553 2426 2076 2069 2170 2189 2232 2270 2646 2975 3720 3647 4469 4961 5032 4859 5036 5100 5124 5020 4809 4841 4834 4507 4123 4221 4283 3834 3611 4497 3908 3801 3757 3828 3172 3594 4156 4476 4728 4806 4283 4146 3965 3918 3988 4082 4332
0 0 0 0 2 2 0 22 1482 3600 2515 2141 2919 2886 2570 2444 2172 2482 2411 2352 2131 2116 2203 2199 2342 3505 4360 3605 3961 4883 5058 5138 5091 5161 5209 5271 5103 4977 4959 4800 4515 4280 4147 3896 3992 3952 4307 4540 4090 4035 3727 3618 4236 4301 4535 4731 4191 3918 3885 3798 3779 3760 3783
0 0 4 3 0 0 2 3 70 710 177 1191 1633 1973 2464 2294 1853 1988 2194 2068 2052 2115 2400 2511 2397 2775 3273 3832 4361 4839 5058 5322 5227 5196 5241 5389 5301 5060 5068 4993 4764 4298 4008 4044 4292 4243 4384 4190 4362 4335 4526 4166 4196 4491 4523 4716 4168 3948 3709 3616 3546 3517 3426
114 55 3 0 0 33 1368 2178 2692 2156 1923 666 299 977 1672 2275 2066 1965 1984 2134 2102 2406 3369 2672 2781 2826 3298 3941 4223 4494 4957 5363 5354 5278 5346 5520 5477 5259 5177 5129 5033 4562 4123 4011 4170 4245 4445 4434 4409 4383 4474 4224 3921 4040 4339 4495 4121 4080 3774 3436 3322 3237 3101
0 0 0 0 190 3016 3594 3123 2822 2213 2382 2739 1614 761 834 1158 1838 1874 1903 1994 2016 2139 2264 2767 3198 2866 3268 3908 3990 4214 4762 5246 5474 5465 5445 5589 5501 5302 5182 5230 5157 4860 4469 4223 4252 4284 4310 4575 4408 4358 4330 4405 4267 3844 3964 4200 3837 3937 3882 3573 3207 3076 2965
0 0 0 404 1143 1709 3560 4020 3494 3101 3201 2925 2178 800 555 564 935 1567 1724 1877 1840 2095 2117 2553 3131 2960 3373 3772 3927 4251 4751 5269 5493 5542 5578 5701 5505 5277 5164 5098 5202 5094 4760 4220 4145 4305 4376 4512 4538 4641 4434 4408 4502 4364 4083 4071 4105 3699 3749 3683 3400 3033 2840
0 271 1094 2151 3064 2888 2981 3071 3873 4284 4196 3583 2740 2405 1653 746 828 1290 1932 1905 1982 2154 2183 2357 3021 3478 3942 4024 4342 4632 5034 5517 5573 5580 5568 5610 5598 5360 5137 5109 5267 5198 4861 4530 4307 4214 4383 4446 4570 4641 4496 4383 4352 4324 4380 4077 4707 3671 3646 3572 3466 3206 2906
2565 2776 2651 2438 2528 2893 3794 4692 4744 4382 3631 3463 3418 3596 3063 2214 1422 1271 2035 2314 1867 2076 2244 2648 3242 3592 3942 4154 4494 5090 5226 5534 5576 5534 5573 5579 5665 5463 5335 5288 5282 5183 4999 4678 4519 4303 4421 4273 4386 4631 4564 4390 4497 3980 3866 4262 4181 3923 3656 3519 3417 3275 3131
2590 2333 2469 1907 2677 4149 3706 3693 4287 4664 4336 4082 3754 3451 3445 2921 2250 2359 2263 2121 1928 2003 2294 2674 3423 3944 3382 3568 4468 5030 5302 5414 5679 5616 5472 5569 5730 5659 5594 5466 5279 5278 5178 4915 4591 4372 4191 4108 4113 4466 4484 4374 4001 3983 3954 4177 4640 3710 3664 3666 3501 3308 3184
2490 2466 3094 3342 3349 3481 3406 3596 4414 4453 3873 4301 4493 4583 3686 2681 2327 2423 2715 2668 2602 2354 2250 2695 3359 3828 4252 4247 3856 4612 5462 5542 5591 5590 5599 5550 5561 5478 5363 5343 5295 5178 5100 4808 4532 4427 4374 4261 4135 4153 4466 4434 4582 4534 4348 4201 4206 3893 3644 3596 3445 3310 3207
2561 2640 2239 3170 3366 3513 3327 3549 4506 4153 4110 4256 3629 3398 2910 3149 3096 2796 2901 2826 2683 2566 2194 2934 4163 3709 3934 4620 4532 4762 5478 5813 5873 5765 5333 5262 5358 5400 5275 5274 5034 4876 4975 4663 4569 4650 4614 4644 4499 4344 4320 4330 4352 4439 4410 4141 3900 5124 3527 3528 3432 3453 3387
2830 2567 2706 2799 3167 3226 2596 3724 4185 4301 4100 3970 4237 4509 4402 3109 3110 3045 2873 2910 3024 2745 2616 2837 3394 4039 4339 4888 5021 5260 5662 6050 5771 5403 5008 4998 5168 5256 5222 5168 5031 4940 4982 4988 4840 4799 4675 4837 4662 4347 4100 4197 4055 3718 3945 4365 4507 3621 3366 3346 3366 3452 3424
2483 2575 2381 2768 2799 2811 2537 3800 4060 3938 4019 3693 3980 4721 5336 4895 3442 3384 3313 3367 3608 3378 3024 3036 3592 4144 4371 4841 5109 5098 5698 5874 5230 5070 4609 4696 4892 5106 5331 5276 5177 5120 5227 5256 4986 4740 4717 4619 4354 4231 3998 3896 3526 3522 3393 4626 4306 3872 3270 3317 3318 3228 3337
2080 2162 2234 2684 2551 2474 2737 3133 3228 3385 3405 3529 3871 4292 5228 5382 4144 3905 3915 5469 5232 4172 3577 3285 3654 4488 4775 4852 4882 4958 5204 5402 5116 4845 4697 4622 4888 5282 5460 5303 5177 5046 5050 5104 4741 4576 4472 4513 4008 3868 4086 4034 3847 3560 3198 3321 4660 3998 3563 3404 3335 3282 3224
1775 2046 2084 2122 2414 2373 2474 2794 2772 2821 3014 3173 3588 3766 4492 4812 5242 5301 5346 4906 5132 5059 4860 4656 4837 5203 5268 5148 5016 4800 4571 5056 5015 4861 4714 4603 4618 4976 5138 5045 4966 4871 4987 4884 4731 4740 4544 4315 3955 3887 3456 3442 3930 3877 3654 4236 3762 4300 3922 3571 3388 3313 3244
1996 1853 2017 2134 2297 2276 2482 2387 2633 2721 2880 3116 3306 3284 3825 4058 4056 4083 4053 4234 4285 4452 5205 4732 4847 4919 4970 4846 4708 4865 4791 4913 4783 4507 4408 4441 4157 4310 4548 4538 4630 4538 4684 4502 4342 4338 4362 4377 4041 3581 3137 3516 3631 3855 4028 3879 3784 3686 3528 4243 3673 3488 3366
1752 1957 2078 2166 2300 2324 2500 2599 2692 2831 3028 2981 3028 3223 3266 3168 3192 3643 3739 4256 4452 4899 4965 4901 4609 4670 4643 4616 4614 4837 4771 4753 4475 4249 4174 4408 4296 4199 4340 4448 3891 3929 4868 4550 4441 4467 4318 4138 3992 3572 3292 3133 3359 3648 3714 3555 3778 3790 3922 4040 3556 3527 3638
1510 1623 1814 2010 2046 2164 2426 2482 2554 2576 2600 2597 2576 2666 2839 2957 3050 3386 3822 4248 4718 5188 4989 5088 4542 4883 4817 4540 4477 4647 4638 4628 4520 4351 4503 4541 4627 4475 4042 3817 3291 4622 4040 4114 3919 4026 4041 4103 3632 3420 3274 3216 4015 4640 4734 4463 3632 3954 3449 3486 3458 3408 3550
1330 1454 1530 1577 1729 1970 2027 2206 2386 2339 2449 2430 2400 2419 2463 2638 2673 2512 3077 3766 4175 4520 4817 5083 4649 4730 4380 4720 4677 4565 4137 4571 4441 4123 4104 4140 3619 3705 4105 3423 4234 4557 4693 4023 3836 3687 3658 3566 3774 3904 3952 3777 3841 4258 3979 3830 3561 3444 3377 3488 3527 3535 3435
1318 1380 1322 1538 1563 1732 1878 2076 2208 2248 2307 2260 2117 1925 2105 2328 2337 2370 2150 2438 3865 4193 4346 4333 4258 4209 4386 4476 4613 4523 3888 3771 4006 4144 4226 3957 3725 3566 4713 3501 3360 3436 3632 3742 3776 3722 3603 3588 3461 3359 3286 3258 3287 3285 3223 3189 3155 3154 3136 3089 3102 3105 3066
1341 1189 1255 1306 1431 1502 1517 1642 1871 1917 1968 2179 2154 2190 2203 2100 2018 2040 1831 2071 2280 2767 4054 3907 3829 3868 3833 3737 3954 4823 4441 4221 4280 4096 4060 3689 3977 4623 4286 4112 4044 3206 3190 3299 3379 3385 3403 3404 3348 3280 3245 3226 3180 2996 2791 2691 2688 2684 2674 2687 2663 2599 2561
Wind_Speed
17 16 13 14 12 10 9 9 10 10 8 6 6 7 9 10 11 11 10 11 11 10 10 10 9 10 9 9 9 9 7 7 8 8 9 9 10 10 9 9 8 8 8 8 7 5 5 5 5 6 7 8 8 10 11 12 10 9 8 7 6 5 8
17 nan 14 13 9 9 8 9 10 11 9 7 7 7 9 10 11 10 10 11 11 12 12 11 10 11 11 12 12 10 9 7 7 10 10 11 11 11 10 10 10 10 9 8 8 7 6 7 7 7 8 9 9 9 11 12 13 12 10 9 7 6 7
20 nan 14 13 7 8 10 9 11 11 10 9 9 8 7 9 10 11 11 12 12 12 13 13 12 12 13 14 14 12 10 8 8 8 8 9 9 9 10 9 9 10 10 9 9 8 8 7 8 8 9 9 9 9 10 12 13 13 12 11 8 7 7
26 nan nan 13 7 10 12 11 12 12 11 10 9 9 8 9 9 11 11 12 13 13 13 13 14 14 15 15 14 13 11 9 8 8 8 9 10 11 10 9 9 9 9 9 9 9 9 9 9 9 10 10 10 11 11 12 13 14 14 13 11 9 8
29 20 14 14 10 12 13 13 13 12 12 12 11 9 7 9 10 10 11 11 12 13 13 14 13 14 15 15 14 13 12 11 10 9 9 10 11 11 10 9 10 9 10 10 9 10 10 11 10 10 11 12 12 11 12 13 13 14 15 15 13 12 9
nan 25 16 15 18 12 9 13 13 13 12 12 13 11 10 10 10 10 11 12 11 12 13 13 14 14 14 15 14 14 14 14 13 12 12 12 12 12 11 11 11 12 12 12 12 11 11 12 12 12 12 13 12 12 13 14 13 14 15 16 15 14 12
nan nan nan nan 17 4 7 12 12 12 12 11 13 14 12 12 11 11 12 12 13 14 13 13 13 14 14 15 14 15 16 16 16 16 15 15 15 14 14 14 14 14 14 16 15 14 14 13 13 14 14 13 14 12 14 15 14 14 14 15 16 15 13
nan 23 15 14 10 9 10 14 14 14 14 12 13 13 12 13 13 12 12 13 14 14 13 13 13 13 15 15 15 16 17 18 18 18 18 18 17 17 17 16 17 17 18 18 19 18 17 16 15 15 15 15 15 15 14 16 16 15 14 15 16 16 15
nan 25 18 14 16 22 19 16 15 15 14 12 11 12 13 13 13 12 13 14 15 14 14 14 15 15 16 16 16 17 19 19 20 21 20 20 19 19 19 18 18 18 18 19 20 20 19 20 18 18 18 17 17 17 16 17 17 17 15 15 16 17 16
nan 31 25 20 19 23 19 13 16 16 15 15 14 14 14 13 13 13 13 14 15 14 16 16 17 18 19 18 18 19 20 20 20 21 21 20 19 20 19 19 19 20 19 20 20 20 20 20 20 20 20 19 19 19 18 18 18 18 17 16 16 17 17
45 39 33 27 24 23 22 19 19 19 19 19 17 15 16 15 14 13 12 13 14 15 18 19 19 20 20 21 21 21 20 20 20 20 21 20 19 19 19 19 19 20 21 21 20 19 20 19 19 20 20 20 20 20 20 19 19 19 18 18 17 17 18
42 32 31 30 27 25 23 23 23 21 21 22 19 17 17 17 15 13 12 11 13 17 19 21 22 21 22 22 22 21 22 22 21 20 21 20 19 19 19 19 20 20 21 21 20 19 18 19 18 18 18 19 20 21 21 21 20 20 20 19 19 19 19
36 31 32 31 30 31 32 30 27 25 24 23 20 18 16 14 14 14 14 12 13 17 19 22 23 23 23 23 22 21 21 22 21 19 19 19 18 17 18 19 21 21 21 21 19 19 18 18 18 17 17 19 20 21 22 22 21 21 20 20 20 21 21
35 33 34 34 34 33 31 30 29 27 26 23 21 19 16 14 13 13 13 13 15 17 18 20 21 22 22 22 21 20 20 20 20 18 18 18 18 17 18 19 20 20 19 18 18 16 17 17 18 17 16 17 18 20 22 22 22 21 21 21 21 21 22
nan 39 36 34 34 33 32 32 30 28 28 25 22 21 19 18 16 16 15 14 15 15 16 18 19 20 21 21 21 19 19 19 19 17 18 18 19 18 18 19 20 19 17 16 14 13 13 14 15 17 16 15 16 18 20 21 21 21 21 21 22 22 22
nan nan nan 35 34 34 33 32 32 30 29 28 25 24 22 22 21 19 19 18 17 16 16 19 18 18 18 20 20 20 20 20 19 18 17 18 18 18 19 19 19 18 16 13 12 11 10 10 11 14 15 16 16 16 16 16 17 20 23 22 22 23 22
nan nan nan 41 39 36 36 34 33 32 30 29 28 27 26 25 25 23 21 21 20 19 18 19 20 18 17 16 18 21 22 21 20 19 18 17 18 18 19 18 18 16 14 12 11 9 9 8 10 10 12 15 16 17 16 15 14 20 22 23 23 23 23
nan nan nan nan nan nan 40 37 35 34 32 30 29 28 27 28 27 26 23 22 22 22 21 19 19 18 16 15 19 21 21 21 21 20 18 18 18 19 19 19 17 15 14 13 11 10 8 8 8 7 9 11 14 16 15 14 17 23 23 24 24 23 22
nan nan nan nan nan nan nan nan 37 36 35 35 33 31 28 28 28 28 26 25 25 25 24 21 20 22 19 16 18 20 20 21 22 21 20 19 19 20 20 20 18 16 14 13 12 11 9 8 8 8 8 9 11 13 14 14 18 24 26 26 26 26 24
nan nan nan nan nan nan nan nan nan 36 35 34 32 31 30 29 28 29 29 28 28 26 25 24 23 24 21 18 16 18 20 22 22 21 21 22 22 22 21 20 19 17 16 15 14 12 10 10 9 7 8 8 9 9 11 13 18 24 26 28 29 29 27
29 nan nan nan nan nan 32 33 35 33 32 30 31 33 33 32 31 32 30 29 28 28 27 25 23 22 21 18 15 17 19 21 22 23 23 24 24 23 21 20 19 19 18 17 16 14 12 11 10 8 9 10 10 8 8 8 18 24 26 27 29 30 29
nan nan nan nan 32 33 29 28 29 29 30 32 32 31 31 31 32 32 31 30 29 28 27 24 20 17 17 16 15 16 17 19 21 23 23 23 22 21 20 20 20 20 20 19 18 16 15 13 12 12 12 12 13 12 8 7 18 22 24 27 28 31 27
nan nan nan 33 32 31 32 28 24 24 24 23 25 27 28 30 31 31 31 31 30 29 25 21 17 15 14 13 14 15 16 18 20 21 21 20 19 18 19 19 19 20 22 22 21 19 17 16 15 15 15 16 17 17 13 10 20 23 24 25 29 30 27
nan 35 38 36 35 32 28 26 25 23 21 21 20 22 25 27 28 30 31 30 30 28 23 17 15 15 13 13 14 15 15 16 17 17 17 17 16 16 17 18 20 21 24 24 24 22 20 19 18 17 18 19 19 21 19 15 24 28 27 28 32 33 31
46 43 39 37 35 33 32 31 29 26 22 20 18 18 19 20 23 25 28 28 27 27 21 14 13 14 14 14 15 14 13 13 13 13 14 14 13 15 17 19 22 23 25 25 24 23 22 22 21 21 21 20 21 23 23 21 24 33 31 32 34 33 33
44 43 39 37 37 38 34 29 26 23 20 19 19 17 17 19 19 21 24 24 24 23 20 15 15 15 15 15 16 16 15 14 13 14 15 15 16 18 20 23 25 26 28 27 26 25 24 24 24 23 24 25 24 25 24 23 26 35 35 36 36 38 34
43 42 41 39 38 37 33 30 30 30 27 29 28 26 24 21 19 19 20 23 22 19 19 21 21 20 19 18 17 18 17 16 16 18 19 19 21 22 23 24 26 27 28 27 27 27 26 26 27 27 27 28 29 28 27 27 26 36 40 39 41 40 38
44 43 40 42 38 35 35 31 33 29 29 31 27 24 22 22 22 21 21 21 20 21 22 26 25 23 21 20 19 19 19 19 21 21 21 22 24 25 24 25 25 25 25 25 26 27 27 28 28 28 28 28 28 28 27 28 30 34 39 40 40 41 40
42 42 42 41 38 40 36 34 34 33 32 31 32 31 28 24 22 23 23 22 22 24 25 26 26 25 24 23 22 22 22 22 23 24 24 24 25 25 26 26 26 27 28 28 28 28 28 28 28 29 28 28 28 26 26 26 31 35 39 37 39 40 39
42 41 40 41 42 42 39 37 36 36 35 34 32 31 31 27 26 26 26 25 26 26 26 26 28 28 26 26 25 24 24 24 24 25 26 27 27 26 26 27 29 29 31 31 30 30 29 28 29 30 30 28 26 25 25 29 29 35 39 39 40 40 40
41 41 40 43 43 43 39 40 39 38 37 36 36 34 34 31 29 30 30 34 31 28 26 27 30 29 28 28 27 26 26 26 27 28 28 29 30 30 29 28 30 30 31 31 30 30 30 31 31 31 31 29 28 26 26 27 31 31 41 43 42 41 42
39 39 40 42 43 43 40 39 40 39 38 36 36 36 35 36 36 35 36 34 32 33 33 32 32 31 31 32 31 30 29 29 29 29 30 31 32 32 32 32 32 33 33 32 33 33 33 34 34 35 34 32 31 30 30 33 33 33 37 46 44 43 44
42 41 41 41 44 42 42 42 42 41 39 40 39 37 37 37 36 33 32 32 31 31 32 31 32 33 34 34 34 34 33 33 32 33 34 34 34 35 34 34 34 34 34 34 35 36 37 38 37 36 36 36 35 36 36 36 36 35 34 44 49 46 46
44 43 42 41 42 42 42 43 42 41 42 43 42 42 41 38 36 36 35 36 35 34 33 32 32 33 34 35 36 38 37 36 36 36 37 38 37 38 39 38 37 38 40 39 40 40 41 41 40 39 39 39 40 39 39 38 39 39 39 39 50 53 52
46 45 45 44 44 43 44 43 43 44 44 44 42 41 40 41 40 39 38 37 38 36 33 36 36 35 37 37 38 39 40 39 40 39 39 39 40 40 42 40 40 41 44 52 51 50 48 45 43 42 42 43 45 45 44 43 42 47 54 53 58 54 55
47 45 45 45 43 42 42 43 43 43 43 43 42 42 43 43 43 41 40 40 38 40 42 41 39 38 39 40 40 39 40 39 41 40 39 40 41 44 50 54 58 55 53 53 55 60 57 54 53 51 50 49 48 49 50 48 49 51 50 51 55 57 49
48 48 47 46 44 45 46 45 44 44 44 43 41 41 42 43 43 43 41 40 40 41 42 43 45 45 45 44 46 44 40 40 40 41 42 41 43 45 50 52 56 60 63 60 55 58 59 60 59 58 58 56 52 54 56 57 55 56 55 54 55 56 53
50 50 49 49 48 48 47 46 46 45 45 44 44 43 42 43 43 42 42 42 42 42 43 44 44 45 45 46 45 46 47 47 49 50 47 47 51 55 52 52 56 58 58 61 62 61 61 59 60 59 60 63 63 59 56 58 59 58 56 55 53 54 54
Wind_Direction
226 226 241 238 240 259 277 300 305 288 282 281 288 298 282 270 266 266 266 272 278 275 274 272 270 264 274 262 263 252 240 226 219 223 232 240 246 255 263 264 267 262 263 270 276 288 292 301 301 317 313 325 342 347 345 337 327 314 308 311 312 315 329
251 nan 236 240 241 268 284 295 293 282 278 276 271 284 272 280 271 272 266 272 279 283 280 275 272 266 269 266 261 266 262 256 243 233 236 240 246 250 260 264 264 269 271 270 278 289 294 307 308 305 312 318 332 340 344 342 336 324 309 306 310 312 322
260 nan 251 254 247 260 277 280 289 290 294 284 280 283 292 290 290 289 274 273 278 276 274 276 274 270 268 268 270 276 276 268 260 255 255 252 264 268 262 262 264 268 280 285 283 290 297 305 307 303 308 310 321 327 331 338 338 331 318 305 305 310 322
267 nan nan 256 241 261 279 282 292 294 292 298 296 310 314 302 291 277 273 280 283 281 287 285 282 280 277 280 281 283 291 289 278 263 259 251 260 266 266 271 268 272 275 285 290 290 291 298 308 303 304 301 306 313 323 330 334 333 326 315 303 306 315
272 271 257 252 243 246 268 276 284 293 305 311 306 297 301 291 283 278 277 282 291 297 300 298 286 287 278 286 276 280 297 304 294 279 269 263 263 270 278 288 287 290 283 283 285 284 284 291 301 300 299 297 302 301 310 317 325 327 328 324 310 303 308
nan 265 257 257 237 222 269 291 295 307 307 307 302 296 288 290 280 296 289 285 287 292 290 292 293 289 292 297 292 292 295 298 296 293 288 284 281 282 289 293 294 297 299 295 288 288 291 289 294 297 300 296 298 302 304 308 315 321 324 325 319 309 304
nan nan nan nan 259 242 288 287 287 289 285 280 279 276 276 282 293 288 280 286 292 293 298 301 300 298 293 291 294 298 301 303 300 303 294 296 295 292 290 289 290 293 293 291 293 292 294 293 292 292 293 295 292 297 292 295 301 304 311 319 320 315 308
nan 263 264 260 264 290 267 264 268 266 264 264 274 282 292 287 284 288 293 290 292 293 294 302 298 292 290 290 292 302 299 301 296 297 293 300 300 301 298 295 295 296 296 301 298 296 297 296 292 288 291 292 290 288 290 291 293 300 301 310 315 319 307
nan 265 271 264 265 247 227 242 257 263 270 271 273 272 277 274 280 287 297 294 289 295 304 302 300 293 285 287 289 298 294 294 295 296 304 309 307 312 311 308 307 306 307 306 301 298 296 294 293 287 288 288 286 287 288 288 292 292 295 299 307 312 312
nan 251 249 247 244 260 261 249 260 256 261 255 247 254 270 269 270 274 281 288 291 305 307 302 295 293 292 292 295 296 293 295 296 305 308 313 311 318 321 318 317 316 318 316 309 304 298 294 292 288 286 287 287 288 287 288 288 290 291 293 296 301 307
237 241 237 232 229 235 246 258 263 257 261 259 260 265 263 266 264 266 273 283 294 297 299 293 289 295 299 302 302 300 299 303 303 307 313 317 314 324 327 328 325 322 326 323 321 316 305 299 294 290 288 286 288 287 288 288 288 289 291 288 287 293 300
238 240 236 232 233 235 244 246 251 251 255 257 268 268 261 258 261 257 256 270 281 287 291 295 292 298 300 300 303 304 312 309 310 315 319 320 322 327 330 331 332 330 326 328 328 325 320 311 303 296 294 289 288 288 289 288 288 290 291 291 289 289 294
240 237 233 235 235 232 231 235 240 244 244 251 261 266 265 265 263 258 253 269 284 283 292 295 295 298 303 302 306 305 313 313 311 309 314 314 319 318 323 330 333 335 332 328 331 331 331 327 319 309 303 295 291 291 290 291 291 289 291 289 288 289 293
241 242 238 236 237 237 237 238 239 241 245 249 254 260 262 266 265 259 257 270 279 285 288 287 293 297 299 297 298 303 313 310 305 303 302 304 304 311 319 325 328 330 330 328 335 337 339 341 334 328 321 310 300 294 290 292 292 293 293 292 291 291 292
nan 243 244 243 239 239 239 242 241 242 245 247 250 256 263 265 267 265 263 264 271 282 293 288 287 291 294 291 293 297 300 292 290 290 292 294 297 304 311 318 321 325 329 330 333 332 341 346 346 340 338 333 320 308 300 297 294 290 293 293 296 293 294
nan nan nan 242 240 239 241 243 246 246 245 247 251 254 263 264 263 271 274 275 279 282 288 283 287 286 289 290 289 288 286 281 278 281 285 288 294 299 305 313 317 326 332 333 335 329 330 336 345 351 346 345 341 334 324 314 299 295 301 293 286 291 288
nan nan nan 240 238 237 239 240 246 248 248 249 251 256 259 261 265 265 270 276 284 289 290 291 286 296 296 287 281 277 277 277 276 275 281 286 287 292 301 306 309 312 313 318 324 326 317 333 353 2 353 350 346 346 342 335 321 314 305 300 296 286 288
nan nan nan nan nan nan 237 238 241 246 249 250 253 258 260 260 264 266 266 271 280 286 289 291 297 306 299 288 269 267 273 274 274 274 278 280 286 289 294 297 300 300 305 313 322 309 319 340 354 356 358 349 352 351 346 343 335 323 320 313 308 299 293
nan nan nan nan nan nan nan nan 243 247 240 240 248 254 262 266 266 266 267 266 272 277 288 299 302 292 291 292 277 269 269 268 272 276 278 281 282 281 284 292 295 299 305 313 307 301 311 324 341 350 355 356 352 355 352 351 335 327 325 322 319 314 308
nan nan nan nan nan nan nan nan nan 233 234 239 242 250 257 262 266 265 268 269 273 280 282 291 295 291 292 290 284 276 273 272 274 277 277 277 277 278 284 291 297 300 299 295 295 300 308 324 333 333 338 341 343 340 351 357 331 332 329 328 325 322 314
216 nan nan nan nan nan 233 237 238 240 242 239 239 241 247 256 261 264 268 271 274 277 278 288 292 285 286 288 288 281 277 276 276 276 276 277 277 279 286 292 292 296 296 296 298 299 299 307 318 319 321 330 330 325 339 348 323 328 331 331 329 326 318
nan nan nan nan 226 233 231 230 234 234 236 235 236 239 242 246 256 262 268 272 275 281 288 290 287 288 285 291 297 294 286 281 275 274 276 277 278 284 292 293 293 295 290 287 287 285 284 287 298 308 311 312 313 314 322 316 306 316 323 328 326 322 305
nan nan nan 224 225 225 228 229 230 230 231 231 229 229 233 239 248 256 264 271 275 282 290 291 287 293 290 294 299 294 286 281 280 281 284 285 288 293 295 291 288 284 281 286 288 287 286 286 289 289 298 305 303 306 299 293 290 304 314 317 317 304 299
nan 223 224 223 225 225 224 225 227 231 229 223 223 224 226 231 240 251 259 267 273 282 288 292 295 295 289 284 286 284 282 281 285 289 292 292 300 301 292 286 279 281 280 285 289 291 285 277 276 281 285 293 301 300 298 292 287 304 308 312 309 304 297
224 226 224 223 221 221 223 223 220 216 214 215 216 223 231 230 233 248 259 263 269 276 282 285 283 289 290 285 280 278 279 278 282 287 291 296 299 292 289 286 282 280 280 284 286 285 277 273 273 276 278 288 296 298 301 301 298 304 309 312 310 307 297
222 223 224 223 225 225 223 220 220 221 223 229 229 232 232 236 239 240 251 262 262 269 277 277 265 265 276 279 277 277 277 278 286 292 295 297 290 285 287 285 285 288 289 289 287 284 280 278 278 282 284 289 294 292 299 301 294 299 313 313 314 319 303
219 222 225 225 225 222 223 224 227 226 221 226 227 227 230 235 246 247 245 252 253 256 264 264 258 260 263 267 277 279 283 284 292 297 294 291 290 291 294 293 293 292 291 291 287 285 284 286 286 288 290 290 290 293 298 295 299 294 310 312 315 319 312
217 220 221 225 225 226 226 226 231 229 230 231 229 234 237 235 238 248 250 250 250 249 249 256 259 261 265 269 274 278 281 286 287 290 289 291 293 295 296 294 294 293 292 287 285 288 290 290 291 291 292 293 294 292 290 292 301 289 302 310 315 315 323
217 219 221 221 224 226 226 227 232 232 230 229 228 228 229 239 245 247 252 251 246 246 246 249 258 263 266 269 273 274 279 281 285 283 284 289 293 295 294 291 291 290 289 290 291 294 297 298 297 295 293 293 296 292 284 283 285 294 290 303 309 314 317
217 218 220 223 224 225 223 227 231 232 232 230 231 230 230 234 248 251 252 252 249 246 245 247 251 256 262 265 267 270 273 276 280 282 283 286 287 290 290 290 288 286 286 290 294 295 298 298 298 296 295 296 297 293 284 280 283 287 295 297 310 309 315
214 217 219 224 224 225 224 227 228 228 228 230 231 233 230 235 249 253 255 247 241 246 246 248 250 251 255 259 262 263 264 267 270 275 276 277 282 283 285 287 285 283 284 287 291 292 293 294 293 293 292 291 291 290 287 284 280 280 289 300 303 310 312
216 219 220 222 225 225 225 229 230 228 228 230 233 235 234 235 241 247 245 247 244 243 241 244 248 248 249 252 256 260 262 263 264 267 270 272 274 279 280 281 282 281 282 284 286 287 289 289 289 289 289 288 288 287 285 282 280 281 283 290 299 302 308
217 218 221 222 226 226 228 227 231 231 233 234 232 236 238 239 241 244 246 246 249 247 242 244 246 247 248 250 253 257 259 262 261 263 266 270 270 274 276 276 276 278 279 281 282 284 285 287 286 285 284 284 285 285 286 286 285 285 286 285 285 287 291
219 219 222 224 227 228 232 235 235 236 236 237 236 235 235 237 240 240 239 242 241 246 249 246 247 247 248 250 251 255 257 258 259 261 264 267 269 270 271 272 273 274 275 277 279 281 283 285 284 283 284 285 285 285 286 287 286 284 283 279 280 287 290
220 220 220 220 225 225 231 235 238 237 238 239 238 240 241 239 237 237 239 239 240 239 250 251 249 247 251 251 251 252 255 256 259 259 260 265 266 265 262 262 267 268 270 263 262 264 269 274 279 281 278 277 275 272 272 275 279 279 267 269 273 278 288
222 224 224 224 224 227 233 233 236 239 240 241 240 240 241 240 238 237 238 240 240 241 242 243 251 254 255 254 255 255 257 259 260 261 261 263 264 265 259 252 251 254 259 263 266 267 268 268 270 271 271 271 272 271 270 271 269 261 258 261 265 276 282
227 229 229 228 229 229 230 232 234 238 239 239 239 241 241 240 238 236 235 238 244 246 246 245 246 246 247 247 246 243 252 260 260 263 262 259 262 263 265 262 256 254 258 262 264 264 266 270 274 274 273 273 271 271 273 272 267 263 262 262 265 267 275
232 232 233 232 232 231 232 231 232 234 236 237 237 238 239 240 240 238 238 237 239 244 250 253 254 253 251 249 249 249 248 251 250 252 254 256 258 259 260 262 261 259 256 261 265 266 265 265 263 260 261 265 267 266 264 259 257 259 259 260 261 266 272